Weather History for KW29 - May, 2013

Change the Weather History Date:

Thursday, May 16, 2013

  Actual Average (KESN) Record (KESN)
Temperature  
Mean Temperature 75 °F -  
Max Temperature 82 °F 76 °F 89 °F (1962)
Min Temperature 68 °F 53 °F 41 °F (1966)
Cooling Degree Days 10    
Growing Degree Days 25 (Base 50)    
Moisture  
Dew Point 58 °F    
Average Humidity 56    
Maximum Humidity 78    
Minimum Humidity 42    
Precipitation  
Precipitation 0.00 in - - ()
Sea Level Pressure  
Sea Level Pressure 29.81 in    
Wind  
Wind Speed 6 mph (West)    
Max Wind Speed 14 mph    
Max Gust Speed 20 mph    
Visibility 10 miles    
Events      
Averages and records for this station are not official NWS values.
T = Trace of Precipitation, MM = Missing Value Source: NWS Daily Summary

Daily Weather History Graph

Daily Weather History Graph

Search for Another Location

Airport or City:

Trip Planner

Search our weather history database for the weather conditions in past years. The results will help you decide how hot, cold, wet, or windy it might be!

Date:

Astronomy

May. 16, 2013 Rise Set
Actual Time 5:51 AM EDT 8:12 PM EDT
Civil Twilight 5:21 AM EDT 8:42 PM EDT
Nautical Twilight 4:44 AM EDT 9:19 PM EDT
Astronomical Twilight 4:03 AM EDT 10:01 PM EDT
Moon 11:21 AM EDT (5/16) 12:32 AM EDT (5/16)
Length of Visible Light 15h 21m
Length of Day
14h 20m
Waxing Crescent, 35% of the Moon is Illuminated
May 16
Waxing Crescent
May 18
First Quarter
May 25
Full
May 31
Last Quarter
Jun 8
New

Hourly Weather History & Observations

Time (EDT) Temp. Heat Index Dew Point Humidity Pressure Visibility Wind Dir Wind Speed Gust Speed Precip Events Conditions
12:01 AM 75.2 °F - 60.8 °F 61% 29.74 in 10.0 mi WSW 6.9 mph - N/A   Clear
12:21 AM 73.4 °F - 60.8 °F 65% 29.74 in 10.0 mi WSW 4.6 mph - N/A   Clear
12:41 AM 73.4 °F - 60.8 °F 65% 29.74 in 10.0 mi WSW 4.6 mph - N/A   Clear
1:01 AM 75.2 °F - 60.8 °F 61% 29.75 in 10.0 mi WSW 8.1 mph - N/A   Clear
1:21 AM 73.4 °F - 60.8 °F 65% 29.75 in 10.0 mi WSW 5.8 mph - N/A   Clear
1:41 AM 73.4 °F - 59.0 °F 61% 29.74 in 10.0 mi WSW 5.8 mph - N/A   Clear
2:01 AM 75.2 °F - 59.0 °F 57% 29.74 in 10.0 mi West 9.2 mph - N/A   Clear
2:22 AM 73.4 °F - 59.0 °F 61% 29.74 in 10.0 mi WSW 4.6 mph - N/A   Clear
2:42 AM 75.2 °F - 57.2 °F 53% 29.74 in 10.0 mi WSW 5.8 mph - N/A   Clear
3:02 AM 77.0 °F - 55.4 °F 47% 29.74 in 10.0 mi WSW 8.1 mph - N/A   Clear
3:22 AM 75.2 °F - 55.4 °F 50% 29.74 in 10.0 mi West 6.9 mph - N/A   Clear
3:42 AM 71.6 °F - 59.0 °F 64% 29.74 in 10.0 mi West 4.6 mph - N/A   Clear
4:02 AM 73.4 °F - 57.2 °F 57% 29.74 in 10.0 mi SSW 3.5 mph - N/A   Clear
4:22 AM 71.6 °F - 57.2 °F 60% 29.75 in 10.0 mi WSW 3.5 mph - N/A   Clear
4:42 AM 71.6 °F - 55.4 °F 57% 29.74 in 10.0 mi WSW 3.5 mph - N/A   Clear
5:02 AM 71.6 °F - 55.4 °F 57% 29.75 in 10.0 mi West 8.1 mph - N/A   Clear
5:22 AM 71.6 °F - 55.4 °F 57% 29.75 in 10.0 mi WSW 5.8 mph - N/A   Clear
5:42 AM 69.8 °F - 55.4 °F 60% 29.76 in 10.0 mi West 4.6 mph - N/A   Clear
6:02 AM 69.8 °F - 55.4 °F 60% 29.77 in 10.0 mi West 5.8 mph - N/A   Clear
6:22 AM 68.0 °F - 57.2 °F 68% 29.78 in 10.0 mi West 5.8 mph - N/A   Clear
6:42 AM 68.0 °F - 57.2 °F 68% 29.79 in 10.0 mi West 5.8 mph - N/A   Clear
7:02 AM 69.8 °F - 53.6 °F 56% 29.79 in 10.0 mi WSW 5.8 mph - N/A   Clear
7:22 AM 71.6 °F - 53.6 °F 53% 29.79 in 10.0 mi West 5.8 mph - N/A   Clear
7:42 AM 71.6 °F - 53.6 °F 53% 29.81 in 10.0 mi WSW 6.9 mph - N/A   Clear
8:02 AM 73.4 °F - 53.6 °F 50% 29.81 in 10.0 mi WSW 6.9 mph - N/A   Clear
8:22 AM 73.4 °F - 53.6 °F 50% 29.82 in 10.0 mi WSW 6.9 mph - N/A   Clear
9:02 AM 73.4 °F - 55.4 °F 53% 29.84 in 10.0 mi West 4.6 mph - N/A   Clear
9:22 AM 73.4 °F - 55.4 °F 53% 29.84 in 10.0 mi West 3.5 mph - N/A   Clear
9:42 AM 75.2 °F - 57.2 °F 53% 29.84 in 10.0 mi West 4.6 mph - N/A   Clear
10:02 AM 75.2 °F - 57.2 °F 53% 29.84 in 10.0 mi West 5.8 mph - N/A   Clear
10:22 AM 77.0 °F - 59.0 °F 54% 29.84 in 10.0 mi West 4.6 mph - N/A   Clear
10:42 AM 77.0 °F - 59.0 °F 54% 29.84 in 10.0 mi WNW 4.6 mph - N/A   Clear
11:03 AM 78.8 °F - 57.2 °F 47% 29.84 in 10.0 mi NW 5.8 mph - N/A   Clear
11:23 AM 78.8 °F - 57.2 °F 47% 29.84 in 10.0 mi NW 5.8 mph - N/A   Clear
11:43 AM 78.8 °F - 59.0 °F 51% 29.84 in 10.0 mi WNW 4.6 mph - N/A   Clear
12:03 PM 77.0 °F - 57.2 °F 50% 29.84 in 10.0 mi WNW 3.5 mph - N/A   Clear
12:23 PM 77.0 °F - 59.0 °F 54% 29.84 in 10.0 mi Calm Calm - N/A   Clear
12:43 PM 77.0 °F - 59.0 °F 54% 29.84 in 10.0 mi Calm Calm - N/A   Clear
1:03 PM 78.8 °F - 57.2 °F 47% 29.84 in 10.0 mi Calm Calm - N/A   Clear
1:43 PM 78.8 °F - 59.0 °F 51% 29.82 in 10.0 mi West 3.5 mph - N/A   Clear
2:03 PM 80.6 °F 80.8 °F 57.2 °F 45% 29.82 in 10.0 mi WSW 8.1 mph - N/A   Clear
2:23 PM 78.8 °F - 57.2 °F 47% 29.81 in 10.0 mi SW 3.5 mph - N/A   Clear
2:43 PM 80.6 °F 80.8 °F 57.2 °F 45% 29.82 in 10.0 mi WSW 5.8 mph - N/A   Clear
3:03 PM 80.6 °F 80.5 °F 55.4 °F 42% 29.82 in 10.0 mi SW 8.1 mph - N/A   Clear
3:23 PM 82.4 °F 82.0 °F 57.2 °F 42% 29.81 in 10.0 mi WSW 10.4 mph - N/A   Clear
3:43 PM 80.6 °F 80.8 °F 57.2 °F 45% 29.81 in 10.0 mi West 12.7 mph - N/A   Clear
4:03 PM 80.6 °F 80.8 °F 57.2 °F 45% 29.81 in 10.0 mi West 12.7 mph - N/A   Clear
4:23 PM 78.8 °F - 59.0 °F 51% 29.81 in 10.0 mi West 9.2 mph - N/A   Clear
4:43 PM 78.8 °F - 55.4 °F 44% 29.81 in 10.0 mi WNW 13.8 mph 19.6 mph N/A   Clear
5:03 PM 78.8 °F - 59.0 °F 51% 29.81 in 10.0 mi West 11.5 mph - N/A   Clear
5:23 PM 77.0 °F - 59.0 °F 54% 29.81 in 10.0 mi West 8.1 mph - N/A   Clear
5:43 PM 73.4 °F - 60.8 °F 65% 29.82 in 10.0 mi West 6.9 mph - N/A   Clear
6:03 PM 75.2 °F - 59.0 °F 57% 29.82 in 10.0 mi West 8.1 mph - N/A   Clear
6:23 PM 77.0 °F - 57.2 °F 50% 29.83 in 10.0 mi West 8.1 mph - N/A   Clear
6:43 PM 75.2 °F - 57.2 °F 53% 29.83 in 10.0 mi WNW 9.2 mph - N/A   Clear
7:03 PM 75.2 °F - 57.2 °F 53% 29.83 in 10.0 mi West 8.1 mph - N/A   Clear
7:23 PM 73.4 °F - 59.0 °F 61% 29.84 in 10.0 mi West 6.9 mph - N/A   Clear
7:44 PM 73.4 °F - 59.0 °F 61% 29.84 in 10.0 mi WSW 8.1 mph - N/A   Clear
8:04 PM 71.6 °F - 59.0 °F 64% 29.85 in 10.0 mi WSW 9.2 mph - N/A   Clear
8:24 PM 73.4 °F - 59.0 °F 61% 29.86 in 10.0 mi West 9.2 mph - N/A   Clear
8:44 PM 73.4 °F - 59.0 °F 61% 29.86 in 10.0 mi WSW 9.2 mph - N/A   Clear
9:04 PM 69.8 °F - 60.8 °F 73% 29.87 in 10.0 mi West 5.8 mph - N/A   Clear
9:24 PM 69.8 °F - 59.0 °F 68% 29.87 in 10.0 mi West 4.6 mph - N/A   Clear
10:04 PM 69.8 °F - 59.0 °F 68% 29.88 in 10.0 mi West 6.9 mph - N/A   Clear
10:24 PM 71.6 °F - 59.0 °F 64% 29.89 in 10.0 mi West 9.2 mph - N/A   Clear
10:44 PM 69.8 °F - 59.0 °F 68% 29.89 in 10.0 mi West 4.6 mph - N/A   Clear
11:04 PM 68.0 °F - 60.8 °F 78% 29.89 in 10.0 mi West 4.6 mph - N/A   Clear
11:24 PM 69.8 °F - 57.2 °F 64% 29.89 in 10.0 mi West 10.4 mph - N/A   Clear
11:44 PM 71.6 °F - 55.4 °F 57% 29.90 in 10.0 mi West 12.7 mph 16.1 mph N/A   Clear